Find Kuiper-00260

NORAD ID: 67787 Int'l Des: 2026-030 Owner: KUIP Country: US Constellation: amazon-leo operational
LEOCIRCULAR

Aktuelle Ansicht

3D-Globus wird geladen...

Über Kuiper-00260

Beschreibung wird geladen...

Nächste Überflüge

Passes for default location (London). Set your location on the main map for personalized predictions.

Höhenverlauf

Loading altitude history...

Zweizeiliger Elementsatz

1 67787U 26030Z 26146.21692049 .00001771 00000-0 28310-3 0 9991
2 67787 51.9001 212.4134 0002117 132.4295 227.6845 14.76393721 16810
Epoch: 26. Mai 2026 • Age: 8 hours

Aktueller Status

Höhe 645.7 km
Geschwindigkeit 7.54 km/s
Subsatellitenpunkt 50.69°N, 166.28°W
Startdatum 12. Feb. 2026
Alter 0.2 years
Typ internet

Technische Details

Klassifizierung Payload
Masse 490.00 kg
Trockenmasse 490.00 kg
Gesamtmasse 490.00 kg
Länge 1.80 m
Durchmesser 0.70 m
Spannweite 5.00 m
Form Box + 2 pan
Hersteller KUIP
Bus-Typ Kuiper
Phasenstatus In Orbit
Besitzer/Staat KUIP/US

Most Searched